Location: Newark
(51.3318°N, 0.0053°E)
Time: 21:36:36
(UTC+00:00)

RS-44 - Pass Details

Date: 01 July 2022
Orbit: 1175 x 1510 km, 82.5° (Epoch: 13 August)

Event Time Altitude Azimuth Distance (km) Brightness Sun altitude
Rises 21:26:10 0° 211° (SSW) 4,368 ? -7.9°
Reaches altitude 10° 21:29:00 10° 217° (SW) 3,444 ? -8.2°
Maximum altitude 21:37:00 50° 291° (WNW) 1,786 ? -8.9°
Drops below altitude 10° 21:45:32 10° 6° (N) 3,656 ? -9.6°
Sets 21:48:40 0° 12° (NNE) 4,657 ? -9.9°
